Madison, MN

4:17 PM CDT on September 19, 2017 (GMT -0500)
Madison-Lac Qui Parle County

Weather History for KDXX - March, 2014

Change the Weather History Date:

Monday, March 17, 2014

  Actual Average (KAQP) Record (KAQP)
Temperature  
Mean Temperature 44 °F -  
Max Temperature 53 °F 34 °F 78 °F (2012)
Min Temperature 35 °F 17 °F 3 °F (2001)
Degree Days  
Heating Degree Days 21    
Moisture  
Dew Point 30 °F    
Average Humidity 62    
Maximum Humidity 87    
Minimum Humidity 44    
Precipitation  
Precipitation 0.00 in - - ()
Sea Level Pressure  
Sea Level Pressure 29.53 in    
Wind  
Wind Speed 13 mph (SSE)    
Max Wind Speed 21 mph    
Max Gust Speed 28 mph    
Visibility 10 miles    
Events Rain    
Averages and records for this station are not official NWS values.
T = Trace of Precipitation, MM = Missing Value Source: NWS Daily Summary

Daily Weather History Graph

Daily Weather History Graph

Search for Another Location

Airport or City:

Trip Planner

Search our weather history database for the weather conditions in past years. The results will help you decide how hot, cold, wet, or windy it might be!

Date:

Astronomy

Mar. 17, 2014 Rise Set
Actual Time 7:33 AM CDT 7:33 PM CDT
Civil Twilight 7:04 AM CDT 8:02 PM CDT
Nautical Twilight 6:29 AM CDT 8:36 PM CDT
Astronomical Twilight 5:55 AM CDT 9:11 PM CDT
Moon 8:56 PM CDT (3/17) 7:46 AM CDT (3/17)
Length of Visible Light 12h 58m
Length of Day
12h 00m
Full, 99% of the Moon is Illuminated
Mar 17
Full
Mar 23
Last Quarter
Mar 30
New
Apr 7
First Quarter
Apr 15
Full

Hourly Weather History & Observations

Time (CDT) Temp. Windchill Dew Point Humidity Pressure Visibility Wind Dir Wind Speed Gust Speed Precip Events Conditions
12:13 AM 35.6 °F 25.5 °F 21.2 °F 56% 29.81 in 10.0 mi South 17.3 mph 25.3 mph N/A   Overcast
12:34 AM 35.6 °F 25.5 °F 21.2 °F 56% 29.78 in 10.0 mi South 17.3 mph 23.0 mph N/A   Scattered Clouds
12:53 AM 35.6 °F 25.5 °F 21.2 °F 56% 29.77 in 10.0 mi South 17.3 mph 26.5 mph N/A   Clear
1:13 AM 35.6 °F 25.5 °F 21.2 °F 56% 29.75 in 10.0 mi South 17.3 mph - N/A   Clear
1:34 AM 37.4 °F 27.2 °F 21.2 °F 52% 29.72 in 10.0 mi South 19.6 mph - N/A   Clear
1:53 AM 37.4 °F 27.8 °F 21.2 °F 52% 29.71 in 10.0 mi South 17.3 mph 21.9 mph N/A   Clear
2:13 AM 37.4 °F 29.3 °F 21.2 °F 52% 29.70 in 10.0 mi SSW 12.7 mph 23.0 mph N/A   Scattered Clouds
2:34 AM 37.4 °F 27.8 °F 23.0 °F 56% 29.68 in 10.0 mi SSW 17.3 mph 24.2 mph N/A   Mostly Cloudy
2:53 AM 39.2 °F 29.6 °F 21.2 °F 49% 29.66 in 10.0 mi SSW 19.6 mph - N/A   Scattered Clouds
3:13 AM 37.4 °F 26.9 °F 23.0 °F 56% 29.65 in 10.0 mi SSW 20.7 mph 27.6 mph N/A   Clear
3:34 AM 39.2 °F 31.2 °F 21.2 °F 49% 29.65 in 10.0 mi SSW 13.8 mph 21.9 mph N/A   Scattered Clouds
3:53 AM 39.2 °F 34.2 °F 21.2 °F 49% 29.66 in 10.0 mi South 6.9 mph - N/A   Mostly Cloudy
4:14 AM 37.4 °F 30.3 °F 23.0 °F 56% 29.64 in 10.0 mi SW 10.4 mph - N/A   Mostly Cloudy
4:33 AM 39.2 °F - 21.2 °F 49% 29.65 in 10.0 mi Calm Calm - N/A Rain Light Rain
4:54 AM 37.4 °F 29.3 °F 23.0 °F 56% 29.61 in 10.0 mi SSW 12.7 mph - N/A   Overcast
5:14 AM 37.4 °F 30.8 °F 23.0 °F 56% 29.62 in 10.0 mi South 9.2 mph - N/A   Light Drizzle
5:33 AM 37.4 °F 27.8 °F 26.6 °F 65% 29.60 in 10.0 mi SSW 17.3 mph - N/A   Light Drizzle
5:54 AM 37.4 °F 30.8 °F 26.6 °F 65% 29.60 in 10.0 mi South 9.2 mph - N/A   Overcast
6:14 AM 37.4 °F 29.3 °F 28.4 °F 70% 29.58 in 10.0 mi SSW 12.7 mph - N/A   Mostly Cloudy
6:33 AM 37.4 °F 30.8 °F 28.4 °F 70% 29.58 in 10.0 mi SSW 9.2 mph - N/A   Mostly Cloudy
6:54 AM 37.4 °F 30.3 °F 26.6 °F 65% 29.57 in 10.0 mi South 10.4 mph - N/A   Mostly Cloudy
7:14 AM 35.6 °F 27.1 °F 26.6 °F 70% 29.55 in 10.0 mi South 12.7 mph - N/A   Scattered Clouds
7:33 AM 35.6 °F 27.5 °F 26.6 °F 70% 29.54 in 10.0 mi South 11.5 mph - N/A   Scattered Clouds
7:53 AM 35.6 °F 27.1 °F 26.6 °F 70% 29.53 in 10.0 mi South 12.7 mph - N/A   Scattered Clouds
8:14 AM 35.6 °F 28.0 °F 26.6 °F 70% 29.54 in 10.0 mi South 10.4 mph - N/A   Scattered Clouds
8:33 AM 37.4 °F 29.8 °F 26.6 °F 65% 29.53 in 10.0 mi South 11.5 mph - N/A   Clear
8:53 AM 37.4 °F 29.3 °F 26.6 °F 65% 29.52 in 10.0 mi SSW 12.7 mph - N/A   Clear
9:14 AM 37.4 °F 29.8 °F 26.6 °F 65% 29.50 in 10.0 mi SSW 11.5 mph - N/A   Clear
9:33 AM 39.2 °F 31.2 °F 26.6 °F 61% 29.49 in 10.0 mi SSW 13.8 mph - N/A   Clear
9:53 AM 39.2 °F 31.2 °F 26.6 °F 61% 29.49 in 10.0 mi SSW 13.8 mph - N/A   Clear
10:14 AM 41.0 °F 35.8 °F 26.6 °F 57% 29.49 in 10.0 mi SW 8.1 mph - N/A   Clear
10:33 AM 42.8 °F 38.0 °F 26.6 °F 53% 29.48 in 10.0 mi SSW 8.1 mph - N/A   Clear
10:53 AM 44.6 °F 41.4 °F 28.4 °F 53% 29.48 in 10.0 mi SW 5.8 mph - N/A   Clear
11:13 AM 46.4 °F 44.3 °F 28.4 °F 50% 29.48 in 10.0 mi SSW 4.6 mph - N/A   Clear
11:33 AM 46.4 °F - 28.4 °F 50% 29.48 in 10.0 mi Calm Calm - N/A   Clear
11:54 AM 48.2 °F - 28.4 °F 46% 29.47 in 10.0 mi South 3.5 mph - N/A   Clear
12:13 PM 48.2 °F - 28.4 °F 46% 29.47 in 10.0 mi South 3.5 mph - N/A   Clear
12:34 PM 51.8 °F - 30.2 °F 44% 29.46 in 10.0 mi Calm Calm - N/A   Clear
12:54 PM 51.8 °F - 30.2 °F 44% 29.45 in 10.0 mi SE 3.5 mph - N/A   Clear
1:13 PM 51.8 °F - 32.0 °F 47% 29.45 in 10.0 mi Calm Calm - N/A   Clear
1:34 PM 51.8 °F - 32.0 °F 47% 29.44 in 10.0 mi SE 3.5 mph - N/A   Clear
1:54 PM 53.6 °F - 33.8 °F 47% 29.44 in 10.0 mi SE 5.8 mph - N/A   Clear
2:13 PM 51.8 °F - 33.8 °F 50% 29.44 in 10.0 mi SE 8.1 mph - N/A   Clear
2:34 PM 53.6 °F - 33.8 °F 47% 29.44 in 10.0 mi ESE 8.1 mph - N/A   Clear
2:54 PM 51.8 °F - 33.8 °F 50% 29.44 in 10.0 mi SE 8.1 mph - N/A   Clear
3:13 PM 53.6 °F - 33.8 °F 47% 29.43 in 10.0 mi ESE 6.9 mph - N/A   Clear
3:34 PM 51.8 °F - 33.8 °F 50% 29.42 in 10.0 mi East 10.4 mph - N/A   Clear
3:54 PM 51.8 °F - 35.6 °F 54% 29.41 in 10.0 mi ESE 13.8 mph 18.4 mph N/A   Clear
4:13 PM 51.8 °F - 35.6 °F 54% 29.42 in 10.0 mi SE 13.8 mph - N/A   Clear
4:34 PM 51.8 °F - 35.6 °F 54% 29.42 in 10.0 mi ESE 12.7 mph - N/A   Clear
4:54 PM 51.8 °F - 35.6 °F 54% 29.42 in 10.0 mi ESE 16.1 mph - N/A   Clear
5:13 PM 50.0 °F - 35.6 °F 58% 29.43 in 10.0 mi SE 12.7 mph - N/A   Clear
5:34 PM 48.2 °F - 35.6 °F 62% 29.44 in 10.0 mi East 11.5 mph - N/A   Clear
5:54 PM 48.2 °F - 37.4 °F 66% 29.43 in 10.0 mi ESE 13.8 mph - N/A   Clear
6:13 PM 48.2 °F - 37.4 °F 66% 29.44 in 10.0 mi ESE 12.7 mph - N/A   Clear
6:34 PM 46.4 °F 40.7 °F 37.4 °F 71% 29.43 in 10.0 mi East 12.7 mph - N/A   Clear
6:53 PM 46.4 °F 40.7 °F 37.4 °F 71% 29.44 in 10.0 mi East 12.7 mph - N/A   Clear
7:14 PM 44.6 °F 39.2 °F 35.6 °F 71% 29.44 in 10.0 mi East 10.4 mph - N/A   Clear
7:33 PM 44.6 °F 39.2 °F 35.6 °F 71% 29.45 in 10.0 mi East 10.4 mph - N/A   Clear
7:53 PM 41.0 °F 34.7 °F 35.6 °F 81% 29.44 in 10.0 mi ENE 10.4 mph - N/A   Clear
8:14 PM 41.0 °F 33.5 °F 35.6 °F 81% 29.46 in 10.0 mi ENE 13.8 mph - N/A   Clear
8:33 PM 39.2 °F 31.2 °F 35.6 °F 87% 29.47 in 10.0 mi ENE 13.8 mph - N/A   Clear
8:53 PM 39.2 °F 32.0 °F 35.6 °F 87% 29.50 in 10.0 mi East 11.5 mph - N/A   Clear
9:14 PM 39.2 °F 31.6 °F 33.8 °F 81% 29.50 in 10.0 mi East 12.7 mph - N/A   Clear
9:33 PM 39.2 °F 31.2 °F 33.8 °F 81% 29.50 in 10.0 mi East 13.8 mph - N/A   Scattered Clouds
9:53 PM 37.4 °F 28.9 °F 33.8 °F 87% 29.51 in 10.0 mi East 13.8 mph - N/A   Mostly Cloudy
10:13 PM 37.4 °F 28.5 °F 33.8 °F 87% 29.50 in 10.0 mi East 15.0 mph - N/A   Mostly Cloudy
10:33 PM 37.4 °F 28.2 °F 33.8 °F 87% 29.50 in 10.0 mi East 16.1 mph 20.7 mph N/A   Scattered Clouds
10:54 PM 37.4 °F 28.5 °F 33.8 °F 87% 29.51 in 10.0 mi East 15.0 mph - N/A   Scattered Clouds
11:13 PM 37.4 °F 28.9 °F 33.8 °F 87% 29.51 in 10.0 mi East 13.8 mph - N/A   Scattered Clouds
11:33 PM 37.4 °F 28.2 °F 33.8 °F 87% 29.52 in 10.0 mi East 16.1 mph 21.9 mph N/A   Scattered Clouds
11:54 PM 37.4 °F 29.3 °F 33.8 °F 87% 29.52 in 10.0 mi East 12.7 mph - N/A   Scattered Clouds